Location: Mount Lemmon
(32.4432°N, 110.7577°W)
Time: 19:09:32
(UTC-07:00)

N. Korean satellite - Visible Passes

Search period start: 23 February 2018 00:00
Search period end: 05 March 2018 00:00
Orbit: 459 x 514 km, 97.2° (Epoch: 23 February)

Date Brightness Start Highest point End Pass type
(mag) Time Alt. Az. Time Alt. Az. Time Alt. Az.
23 Feb 9.7 19:07:08 10° SW 19:09:39 19° W 19:12:12 10° NW visible
24 Feb 8.0 18:42:34 10° S 18:45:50 42° W 18:49:09 10° NNW visible
25 Feb 9.9 06:14:30 10° NE 06:17:16 20° E 06:20:03 10° SE visible
27 Feb 9.6 19:05:30 10° SW 19:08:06 20° W 19:10:44 10° NW visible
28 Feb 7.9 18:40:58 10° S 18:44:16 44° W 18:47:38 10° NNW visible
01 Mar 10.0 06:13:00 10° NE 06:15:45 19° E 06:18:29 10° SE visible
03 Mar 9.5 19:03:48 10° SSW 19:06:30 21° W 19:09:14 10° NW visible
